Location: Cella
(44.7333°N, 10.5667°E)
Time: 20:32:41
(UTC+00:00)

OBJECT-B - Pass Details

Date: 03 March 2021
Orbit: 414 x 427 km, 97.0° (Epoch: 11 April)

Event Time Altitude Azimuth Distance (km) Brightness Sun altitude
Exits shadow 18:05:12 11° 53° (NE) 1,437 3.0 -10.9°
Drops below altitude 10° 18:05:47 10° 43° (NE) 1,513 3.2 -11.0°
Sets 18:08:50 0° 10° (N) 2,381 4.5 -11.6°
